Voltar ao catálogo

SL-16 DEB

LostLEO
NORAD 39883·DEBRIS·🇷🇺 Russia

Lançado Mar 26, 1993 de Baikonur Cosmodrome

Loading…

Próximas Passagens (próximas 24 horas)

TLE

ObsoletoSource: Space-Track

Época: May 18, 2022, 00:50 UTC

1 39883U 93016BH  22138.03492628  .00007082  00000-0  28964-2 0  9998
2 39883  70.9680 273.0102 0128666 335.9497  23.5653 14.23131217981745

Acompanhe SL-16 DEB em tempo real com AllMySat

Download on the App Store